Time,TemperatureF,DewpointF,PressureIn,WindDirection,WindDirectionDegrees,WindSpeedMPH,WindSpeedGustMPH,Humidity,HourlyPrecipIn,Conditions,Clouds,dailyrainin,SoftwareType,DateUTC
2013-02-03 00:01:00,40.8,39.5,30.33,ESE,123,0.0,0.0,95,0.00,,,0.00,VWS V14.01,2013-02-03 08:01:00,
2013-02-03 00:06:00,40.7,39.4,30.33,ESE,122,0.0,0.0,95,0.00,,,0.00,VWS V14.01,2013-02-03 08:06:00,
2013-02-03 00:11:00,40.5,39.2,30.33,ESE,123,0.0,0.0,95,0.00,,,0.00,VWS V14.01,2013-02-03 08:11:00,
2013-02-03 00:16:00,40.3,39.0,30.33,ESE,122,0.0,0.0,95,0.00,,,0.00,VWS V14.01,2013-02-03 08:16:00,
2013-02-03 00:21:00,40.1,38.8,30.33,ESE,123,0.0,0.0,95,0.00,,,0.00,VWS V14.01,2013-02-03 08:21:00,
2013-02-03 00:26:00,39.8,38.5,30.33,ESE,123,0.0,0.0,95,0.00,,,0.00,VWS V14.01,2013-02-03 08:26:00,
2013-02-03 00:31:00,39.7,38.4,30.33,ESE,123,0.0,0.0,95,0.00,,,0.00,VWS V14.01,2013-02-03 08:31:00,
2013-02-03 00:36:00,39.6,38.3,30.33,ESE,122,0.0,0.0,95,0.00,,,0.00,VWS V14.01,2013-02-03 08:36:00,
2013-02-03 00:41:00,39.6,38.3,30.33,ESE,122,0.0,0.0,95,0.00,,,0.00,VWS V14.01,2013-02-03 08:41:00,
2013-02-03 00:46:00,39.6,38.3,30.33,ESE,123,0.0,0.0,95,0.00,,,0.00,VWS V14.01,2013-02-03 08:46:00,
2013-02-03 00:51:00,39.7,38.7,30.33,NE,49,0.0,0.0,96,0.00,,,0.00,VWS V14.01,2013-02-03 08:51:00,
2013-02-03 00:56:00,40.4,39.3,30.33,NE,50,0.0,0.0,96,0.00,,,0.00,VWS V14.01,2013-02-03 08:56:00,
2013-02-03 01:01:00,40.5,39.5,30.32,NE,50,0.0,0.0,96,0.00,,,0.00,VWS V14.01,2013-02-03 09:01:00,
2013-02-03 01:06:00,40.4,39.3,30.32,NE,48,0.0,0.0,96,0.00,,,0.00,VWS V14.01,2013-02-03 09:06:00,
2013-02-03 01:11:00,40.2,38.9,30.32,NE,50,0.0,0.0,95,0.00,,,0.00,VWS V14.01,2013-02-03 09:11:00,
2013-02-03 01:16:00,39.9,38.6,30.32,NE,50,0.0,0.0,95,0.00,,,0.00,VWS V14.01,2013-02-03 09:16:00,
2013-02-03 01:21:00,39.7,38.4,30.32,NE,49,0.0,0.0,95,0.00,,,0.00,VWS V14.01,2013-02-03 09:21:00,
2013-02-03 01:26:00,39.5,38.2,30.32,NE,49,0.0,0.0,95,0.00,,,0.00,VWS V14.01,2013-02-03 09:26:00,
2013-02-03 01:31:00,39.4,38.1,30.32,NE,56,0.0,0.0,95,0.00,,,0.00,VWS V14.01,2013-02-03 09:31:00,
2013-02-03 01:36:00,39.2,37.9,30.32,NE,56,0.0,0.0,95,0.00,,,0.00,VWS V14.01,2013-02-03 09:36:00,
2013-02-03 01:41:00,39.2,38.2,30.32,WSW,245,0.0,1.0,96,0.00,,,0.00,VWS V14.01,2013-02-03 09:41:00,
2013-02-03 01:46:00,39.3,38.3,30.32,South,186,0.0,1.0,96,0.00,,,0.00,VWS V14.01,2013-02-03 09:46:00,
2013-02-03 01:51:00,39.5,38.5,30.32,South,186,0.0,1.0,96,0.00,,,0.00,VWS V14.01,2013-02-03 09:51:00,
2013-02-03 01:56:00,39.4,38.4,30.32,South,186,0.0,1.0,96,0.00,,,0.00,VWS V14.01,2013-02-03 09:56:00,
2013-02-03 02:01:00,39.4,38.4,30.32,South,186,0.0,0.0,96,0.00,,,0.00,VWS V14.01,2013-02-03 10:01:00,
2013-02-03 02:06:00,39.3,38.3,30.32,South,186,0.0,0.0,96,0.00,,,0.00,VWS V14.01,2013-02-03 10:06:00,
2013-02-03 02:11:00,39.3,38.3,30.32,SSE,156,0.0,0.0,96,0.00,,,0.00,VWS V14.01,2013-02-03 10:11:00,
2013-02-03 02:16:00,39.1,38.1,30.33,SSE,156,0.0,0.0,96,0.00,,,0.00,VWS V14.01,2013-02-03 10:16:00,
2013-02-03 02:21:00,38.9,37.6,30.33,SSE,157,0.0,0.0,95,0.00,,,0.00,VWS V14.01,2013-02-03 10:21:00,
2013-02-03 02:26:00,38.7,37.4,30.33,SSE,156,0.0,0.0,95,0.00,,,0.00,VWS V14.01,2013-02-03 10:26:00,
2013-02-03 02:31:00,38.6,37.3,30.33,SSE,156,0.0,0.0,95,0.00,,,0.00,VWS V14.01,2013-02-03 10:31:00,
2013-02-03 02:36:00,38.6,37.6,30.33,SSE,159,0.0,0.0,96,0.00,,,0.00,VWS V14.01,2013-02-03 10:36:00,
2013-02-03 02:41:00,38.7,37.7,30.33,SSE,162,0.0,1.0,96,0.00,,,0.00,VWS V14.01,2013-02-03 10:41:00,
2013-02-03 02:46:00,39.6,38.8,30.33,West,259,0.0,1.0,97,0.00,,,0.00,VWS V14.01,2013-02-03 10:46:00,
2013-02-03 02:51:00,40.6,39.8,30.33,SW,235,0.0,1.0,97,0.00,,,0.00,VWS V14.01,2013-02-03 10:51:00,
2013-02-03 02:56:00,41.3,40.5,30.33,NW,310,0.0,2.0,97,0.00,,,0.00,VWS V14.01,2013-02-03 10:56:00,
2013-02-03 03:01:00,41.9,41.1,30.33,WSW,239,0.0,1.0,97,0.00,,,0.00,VWS V14.01,2013-02-03 11:01:00,
2013-02-03 03:06:00,42.1,41.3,30.33,WSW,238,0.0,1.0,97,0.00,,,0.00,VWS V14.01,2013-02-03 11:06:00,
2013-02-03 03:11:00,41.9,41.1,30.33,WSW,239,0.0,1.0,97,0.00,,,0.00,VWS V14.01,2013-02-03 11:11:00,
2013-02-03 03:16:00,41.7,40.9,30.32,WSW,239,0.0,1.0,97,0.00,,,0.00,VWS V14.01,2013-02-03 11:16:00,
2013-02-03 03:21:00,41.4,40.6,30.32,WSW,246,0.0,1.0,97,0.00,,,0.00,VWS V14.01,2013-02-03 11:21:00,
2013-02-03 03:26:00,41.2,40.4,30.32,WSW,246,0.0,1.0,97,0.00,,,0.00,VWS V14.01,2013-02-03 11:26:00,
2013-02-03 03:31:00,41.1,40.3,30.32,South,188,0.0,0.0,97,0.00,,,0.00,VWS V14.01,2013-02-03 11:31:00,
2013-02-03 03:36:00,41.1,40.3,30.32,South,188,0.0,0.0,97,0.00,,,0.00,VWS V14.01,2013-02-03 11:36:00,
2013-02-03 03:41:00,41.5,40.7,30.32,WNW,290,0.0,1.0,97,0.00,,,0.00,VWS V14.01,2013-02-03 11:41:00,
2013-02-03 03:46:00,41.7,40.9,30.32,WNW,289,0.0,1.0,97,0.00,,,0.00,VWS V14.01,2013-02-03 11:46:00,
2013-02-03 03:51:00,41.8,41.0,30.32,North,358,0.0,1.0,97,0.00,,,0.00,VWS V14.01,2013-02-03 11:51:00,
2013-02-03 03:56:00,41.9,41.1,30.32,NNW,340,0.0,1.0,97,0.00,,,0.00,VWS V14.01,2013-02-03 11:56:00,
2013-02-03 04:01:00,42.5,41.7,30.32,WNW,295,0.0,4.0,97,0.00,,,0.00,VWS V14.01,2013-02-03 12:01:00,
2013-02-03 04:06:00,43.0,42.2,30.32,West,266,0.0,4.0,97,0.00,,,0.00,VWS V14.01,2013-02-03 12:06:00,
2013-02-03 04:11:00,43.1,42.3,30.31,NW,318,0.0,4.0,97,0.00,,,0.00,VWS V14.01,2013-02-03 12:11:00,
2013-02-03 04:16:00,43.0,42.2,30.31,SSW,198,0.0,4.0,97,0.00,,,0.00,VWS V14.01,2013-02-03 12:16:00,
2013-02-03 04:21:00,43.1,42.3,30.31,SSW,208,0.0,4.0,97,0.00,,,0.00,VWS V14.01,2013-02-03 12:21:00,
2013-02-03 04:26:00,43.1,42.0,30.31,West,277,1.0,4.0,96,0.00,,,0.00,VWS V14.01,2013-02-03 12:26:00,
2013-02-03 04:31:00,43.2,42.1,30.31,WSW,242,0.0,2.0,96,0.00,,,0.00,VWS V14.01,2013-02-03 12:31:00,
2013-02-03 04:36:00,43.3,42.2,30.31,NNW,340,0.0,2.0,96,0.00,,,0.00,VWS V14.01,2013-02-03 12:36:00,
2013-02-03 04:41:00,43.3,42.2,30.31,North,5,0.0,2.0,96,0.00,,,0.00,VWS V14.01,2013-02-03 12:41:00,
2013-02-03 04:46:00,43.3,42.0,30.31,North,6,0.0,2.0,95,0.00,,,0.00,VWS V14.01,2013-02-03 12:46:00,
2013-02-03 04:51:00,43.2,41.9,30.31,North,6,0.0,2.0,95,0.00,,,0.00,VWS V14.01,2013-02-03 12:51:00,
2013-02-03 04:56:00,43.2,41.9,30.31,SW,221,0.0,2.0,95,0.00,,,0.00,VWS V14.01,2013-02-03 12:56:00,
2013-02-03 05:01:00,43.3,42.0,30.31,WNW,284,0.0,0.0,95,0.00,,,0.00,VWS V14.01,2013-02-03 13:01:00,
2013-02-03 05:06:00,43.3,42.0,30.31,SW,232,1.0,2.0,95,0.00,,,0.00,VWS V14.01,2013-02-03 13:06:00,
2013-02-03 05:11:00,43.1,41.5,30.31,SW,228,0.0,2.0,94,0.00,,,0.00,VWS V14.01,2013-02-03 13:11:00,
2013-02-03 05:16:00,43.2,41.6,30.31,SW,236,0.0,2.0,94,0.00,,,0.00,VWS V14.01,2013-02-03 13:16:00,
2013-02-03 05:21:00,43.2,41.6,30.31,SW,236,0.0,2.0,94,0.00,,,0.00,VWS V14.01,2013-02-03 13:21:00,
2013-02-03 05:26:00,43.0,41.4,30.31,NW,314,0.0,2.0,94,0.00,,,0.00,VWS V14.01,2013-02-03 13:26:00,
2013-02-03 05:31:00,43.0,41.4,30.31,ENE,58,0.0,1.0,94,0.00,,,0.00,VWS V14.01,2013-02-03 13:31:00,
2013-02-03 05:36:00,42.8,41.2,30.31,NNW,330,0.0,1.0,94,0.00,,,0.00,VWS V14.01,2013-02-03 13:36:00,
2013-02-03 05:41:00,42.9,41.3,30.31,SW,222,0.0,3.0,94,0.00,,,0.00,VWS V14.01,2013-02-03 13:41:00,
2013-02-03 05:46:00,43.1,41.5,30.31,WSW,240,0.0,3.0,94,0.00,,,0.00,VWS V14.01,2013-02-03 13:46:00,
2013-02-03 05:51:00,43.0,41.1,30.31,SSW,200,0.0,3.0,93,0.00,,,0.00,VWS V14.01,2013-02-03 13:51:00,
2013-02-03 05:56:00,42.9,41.0,30.31,WNW,290,1.0,3.0,93,0.00,,,0.00,VWS V14.01,2013-02-03 13:56:00,
2013-02-03 06:01:00,43.0,41.1,30.31,SW,215,0.0,1.0,93,0.01,,,0.01,VWS V14.01,2013-02-03 14:01:00,
2013-02-03 06:06:00,43.0,41.1,30.32,SW,233,0.0,1.0,93,0.01,,,0.01,VWS V14.01,2013-02-03 14:06:00,
2013-02-03 06:11:00,43.0,40.8,30.32,West,274,0.0,1.0,92,0.01,,,0.01,VWS V14.01,2013-02-03 14:11:00,
2013-02-03 06:16:00,42.9,40.7,30.32,WSW,250,0.0,1.0,92,0.01,,,0.01,VWS V14.01,2013-02-03 14:16:00,
2013-02-03 06:21:00,42.8,40.6,30.33,SW,229,0.0,1.0,92,0.01,,,0.01,VWS V14.01,2013-02-03 14:21:00,
2013-02-03 06:26:00,42.7,40.5,30.33,SW,226,0.0,1.0,92,0.01,,,0.01,VWS V14.01,2013-02-03 14:26:00,
2013-02-03 06:31:00,42.4,40.2,30.33,SW,226,0.0,0.0,92,0.01,,,0.01,VWS V14.01,2013-02-03 14:31:00,
2013-02-03 06:36:00,42.1,40.0,30.33,WSW,238,0.0,1.0,92,0.01,,,0.01,VWS V14.01,2013-02-03 14:36:00,
2013-02-03 06:41:00,41.9,39.8,30.33,ESE,120,0.0,1.0,92,0.01,,,0.01,VWS V14.01,2013-02-03 14:41:00,
2013-02-03 06:46:00,41.8,39.9,30.33,ESE,122,0.0,1.0,93,0.01,,,0.01,VWS V14.01,2013-02-03 14:46:00,
2013-02-03 06:51:00,41.6,39.5,30.33,SE,127,0.0,1.0,92,0.01,,,0.01,VWS V14.01,2013-02-03 14:51:00,
2013-02-03 06:56:00,41.2,39.1,30.33,SE,127,0.0,1.0,92,0.01,,,0.01,VWS V14.01,2013-02-03 14:56:00,
2013-02-03 07:01:00,41.0,39.1,30.33,SE,127,0.0,0.0,93,0.00,,,0.01,VWS V14.01,2013-02-03 15:01:00,
2013-02-03 07:06:00,40.7,38.8,30.33,SE,127,0.0,0.0,93,0.00,,,0.01,VWS V14.01,2013-02-03 15:06:00,
2013-02-03 07:11:00,40.7,39.1,30.32,SE,125,0.0,0.0,94,0.00,,,0.01,VWS V14.01,2013-02-03 15:11:00,
2013-02-03 07:16:00,40.4,38.5,30.32,SE,125,0.0,0.0,93,0.00,,,0.01,VWS V14.01,2013-02-03 15:16:00,
2013-02-03 07:21:00,40.3,38.7,30.32,SE,125,0.0,0.0,94,0.00,,,0.01,VWS V14.01,2013-02-03 15:21:00,
2013-02-03 07:26:00,40.4,38.8,30.32,SE,125,0.0,0.0,94,0.00,,,0.01,VWS V14.01,2013-02-03 15:26:00,
2013-02-03 07:31:00,40.2,38.6,30.32,SE,125,0.0,0.0,94,0.00,,,0.01,VWS V14.01,2013-02-03 15:31:00,
2013-02-03 07:36:00,39.9,38.3,30.33,SE,125,0.0,0.0,94,0.00,,,0.01,VWS V14.01,2013-02-03 15:36:00,
2013-02-03 07:41:00,39.7,38.1,30.33,SE,125,0.0,0.0,94,0.00,,,0.01,VWS V14.01,2013-02-03 15:41:00,
2013-02-03 07:46:00,39.6,38.0,30.33,SE,125,0.0,0.0,94,0.00,,,0.01,VWS V14.01,2013-02-03 15:46:00,
2013-02-03 07:51:00,39.5,37.9,30.33,SE,126,0.0,0.0,94,0.00,,,0.01,VWS V14.01,2013-02-03 15:51:00,
2013-02-03 07:56:00,39.3,37.7,30.33,SE,125,0.0,0.0,94,0.00,,,0.01,VWS V14.01,2013-02-03 15:56:00,
2013-02-03 08:01:00,39.2,37.6,30.33,SE,126,0.0,0.0,94,0.00,,,0.01,VWS V14.01,2013-02-03 16:01:00,
2013-02-03 08:06:00,39.5,38.2,30.33,SE,125,0.0,0.0,95,0.00,,,0.01,VWS V14.01,2013-02-03 16:06:00,
2013-02-03 08:11:00,39.9,38.8,30.33,SE,125,0.0,1.0,96,0.00,,,0.01,VWS V14.01,2013-02-03 16:11:00,
2013-02-03 08:16:00,40.4,39.3,30.33,SE,125,0.0,1.0,96,0.00,,,0.01,VWS V14.01,2013-02-03 16:16:00,
2013-02-03 08:21:00,41.1,40.0,30.33,SE,127,0.0,1.0,96,0.00,,,0.01,VWS V14.01,2013-02-03 16:21:00,
2013-02-03 08:26:00,41.9,40.8,30.33,SE,127,0.0,1.0,96,0.00,,,0.01,VWS V14.01,2013-02-03 16:26:00,
2013-02-03 08:31:00,42.9,41.8,30.33,East,92,0.0,1.0,96,0.00,,,0.01,VWS V14.01,2013-02-03 16:31:00,
2013-02-03 08:36:00,43.9,42.0,30.33,South,170,0.0,2.0,93,0.00,,,0.01,VWS V14.01,2013-02-03 16:36:00,
2013-02-03 08:41:00,44.7,42.2,30.33,SW,219,0.0,2.0,91,0.00,,,0.01,VWS V14.01,2013-02-03 16:41:00,
2013-02-03 08:46:00,45.2,42.2,30.33,WNW,288,0.0,2.0,89,0.00,,,0.01,VWS V14.01,2013-02-03 16:46:00,
2013-02-03 08:51:00,45.8,42.5,30.34,WSW,240,0.0,3.0,88,0.00,,,0.01,VWS V14.01,2013-02-03 16:51:00,
2013-02-03 08:56:00,46.3,42.3,30.34,SSW,213,2.0,3.0,86,0.00,,,0.01,VWS V14.01,2013-02-03 16:56:00,
2013-02-03 09:01:00,46.9,42.6,30.34,West,274,0.0,1.0,85,0.00,,,0.01,VWS V14.01,2013-02-03 17:01:00,
2013-02-03 09:06:00,47.4,42.8,30.33,SE,143,1.0,2.0,84,0.00,,,0.01,VWS V14.01,2013-02-03 17:06:00,
2013-02-03 09:11:00,48.1,42.9,30.33,SE,139,1.0,4.0,82,0.00,,,0.01,VWS V14.01,2013-02-03 17:11:00,
2013-02-03 09:16:00,48.7,43.5,30.33,WNW,291,0.0,4.0,82,0.00,,,0.01,VWS V14.01,2013-02-03 17:16:00,
2013-02-03 09:21:00,49.1,43.5,30.33,WSW,256,1.0,4.0,81,0.00,,,0.01,VWS V14.01,2013-02-03 17:21:00,
2013-02-03 09:26:00,49.5,43.9,30.33,WSW,246,0.0,4.0,81,0.00,,,0.01,VWS V14.01,2013-02-03 17:26:00,
2013-02-03 09:31:00,49.9,44.0,30.33,WSW,250,1.0,3.0,80,0.00,,,0.01,VWS V14.01,2013-02-03 17:31:00,
2013-02-03 09:36:00,50.1,43.5,30.33,WNW,285,1.0,6.0,78,0.00,,,0.01,VWS V14.01,2013-02-03 17:36:00,
2013-02-03 09:41:00,50.3,43.7,30.33,SW,222,2.0,6.0,78,0.00,,,0.01,VWS V14.01,2013-02-03 17:41:00,
2013-02-03 09:46:00,50.6,43.7,30.33,WSW,256,1.0,6.0,77,0.00,,,0.01,VWS V14.01,2013-02-03 17:46:00,
2013-02-03 09:51:00,50.9,44.0,30.33,WNW,288,0.0,6.0,77,0.00,,,0.01,VWS V14.01,2013-02-03 17:51:00,
2013-02-03 09:55:00,51.3,44.0,30.33,SSE,152,2.0,6.0,76,0.00,,,0.01,VWS V14.01,2013-02-03 17:55:00,
2013-02-03 10:00:00,51.5,44.2,30.33,NW,323,2.0,2.0,76,0.00,,,0.01,VWS V14.01,2013-02-03 18:00:00,
2013-02-03 10:05:00,51.9,44.2,30.34,WNW,298,1.0,4.0,75,0.00,,,0.01,VWS V14.01,2013-02-03 18:05:00,
2013-02-03 10:10:00,52.0,44.3,30.34,WNW,299,1.0,4.0,75,0.00,,,0.01,VWS V14.01,2013-02-03 18:10:00,
2013-02-03 10:15:00,52.3,44.3,30.34,West,271,1.0,4.0,74,0.00,,,0.01,VWS V14.01,2013-02-03 18:15:00,
2013-02-03 10:20:00,52.7,44.7,30.34,WSW,243,2.0,4.0,74,0.00,,,0.01,VWS V14.01,2013-02-03 18:20:00,
2013-02-03 10:25:00,52.8,44.0,30.34,NW,306,1.0,4.0,72,0.00,,,0.01,VWS V14.01,2013-02-03 18:25:00,
2013-02-03 10:30:00,53.1,44.3,30.34,SW,218,1.0,2.0,72,0.00,,,0.01,VWS V14.01,2013-02-03 18:30:00,
2013-02-03 10:35:00,53.5,44.3,30.34,NW,315,1.0,3.0,71,0.00,,,0.01,VWS V14.01,2013-02-03 18:35:00,
2013-02-03 10:40:00,53.6,44.1,30.34,SW,236,6.0,6.0,70,0.00,,,0.01,VWS V14.01,2013-02-03 18:40:00,
2013-02-03 10:45:00,53.6,44.4,30.34,NNW,341,3.0,6.0,71,0.00,,,0.01,VWS V14.01,2013-02-03 18:45:00,
2013-02-03 10:50:00,53.9,45.1,30.34,WNW,288,1.0,6.0,72,0.00,,,0.01,VWS V14.01,2013-02-03 18:50:00,
2013-02-03 10:55:00,54.0,44.5,30.34,West,270,1.0,6.0,70,0.00,,,0.01,VWS V14.01,2013-02-03 18:55:00,
2013-02-03 11:00:00,54.4,44.8,30.33,WNW,293,3.0,5.0,70,0.00,,,0.01,VWS V14.01,2013-02-03 19:00:00,
2013-02-03 11:05:00,54.6,44.7,30.33,WNW,282,0.0,5.0,69,0.00,,,0.01,VWS V14.01,2013-02-03 19:05:00,
2013-02-03 11:10:00,55.1,45.1,30.32,SSW,202,1.0,5.0,69,0.00,,,0.01,VWS V14.01,2013-02-03 19:10:00,
2013-02-03 11:15:00,55.7,45.3,30.32,West,278,1.0,5.0,68,0.00,,,0.01,VWS V14.01,2013-02-03 19:15:00,
2013-02-03 11:20:00,55.7,44.9,30.31,West,269,0.0,5.0,67,0.00,,,0.01,VWS V14.01,2013-02-03 19:20:00,
2013-02-03 11:25:00,56.1,44.9,30.31,West,267,1.0,5.0,66,0.00,,,0.01,VWS V14.01,2013-02-03 19:25:00,
2013-02-03 11:30:00,56.3,45.5,30.31,WSW,240,2.0,3.0,67,0.00,,,0.01,VWS V14.01,2013-02-03 19:30:00,
2013-02-03 11:35:00,56.5,44.9,30.30,SSE,162,3.0,3.0,65,0.00,,,0.01,VWS V14.01,2013-02-03 19:35:00,
2013-02-03 11:40:00,56.7,45.5,30.30,ESE,104,1.0,5.0,66,0.00,,,0.01,VWS V14.01,2013-02-03 19:40:00,
2013-02-03 11:45:00,57.0,45.4,30.30,South,173,3.0,5.0,65,0.00,,,0.01,VWS V14.01,2013-02-03 19:45:00,
2013-02-03 11:50:00,56.8,45.2,30.29,WSW,240,2.0,5.0,65,0.00,,,0.01,VWS V14.01,2013-02-03 19:50:00,
2013-02-03 11:55:00,57.1,45.0,30.29,South,185,3.0,5.0,64,0.00,,,0.01,VWS V14.01,2013-02-03 19:55:00,
2013-02-03 12:00:00,57.6,45.9,30.29,SSW,195,2.0,2.0,65,0.00,,,0.01,VWS V14.01,2013-02-03 20:00:00,
2013-02-03 12:05:00,57.8,45.7,30.28,SE,135,2.0,3.0,64,0.00,,,0.01,VWS V14.01,2013-02-03 20:05:00,
2013-02-03 12:10:00,58.0,46.3,30.28,SSW,211,1.0,5.0,65,0.00,,,0.01,VWS V14.01,2013-02-03 20:10:00,
2013-02-03 12:15:00,58.6,46.5,30.29,NNW,333,1.0,5.0,64,0.00,,,0.01,VWS V14.01,2013-02-03 20:15:00,
2013-02-03 12:20:00,59.0,46.4,30.28,NW,323,1.0,5.0,63,0.00,,,0.01,VWS V14.01,2013-02-03 20:20:00,
2013-02-03 12:25:00,59.2,46.6,30.28,NNW,338,2.0,5.0,63,0.00,,,0.01,VWS V14.01,2013-02-03 20:25:00,
2013-02-03 12:30:00,59.0,46.4,30.27,NW,311,1.0,3.0,63,0.00,,,0.01,VWS V14.01,2013-02-03 20:30:00,
2013-02-03 12:35:00,59.1,46.1,30.27,SW,229,1.0,3.0,62,0.00,,,0.01,VWS V14.01,2013-02-03 20:35:00,
2013-02-03 12:40:00,59.3,46.3,30.27,SSW,198,1.0,4.0,62,0.00,,,0.01,VWS V14.01,2013-02-03 20:40:00,
2013-02-03 12:45:00,59.2,46.6,30.27,NW,305,1.0,4.0,63,0.00,,,0.01,VWS V14.01,2013-02-03 20:45:00,
2013-02-03 12:50:00,59.6,46.6,30.27,WSW,253,1.0,4.0,62,0.00,,,0.01,VWS V14.01,2013-02-03 20:50:00,
2013-02-03 12:55:00,59.7,46.7,30.26,WSW,255,0.0,4.0,62,0.00,,,0.01,VWS V14.01,2013-02-03 20:55:00,
2013-02-03 13:00:00,59.9,46.0,30.26,SSW,201,1.0,3.0,60,0.00,,,0.01,VWS V14.01,2013-02-03 21:00:00,
2013-02-03 13:05:00,60.1,46.6,30.26,SSW,194,1.0,4.0,61,0.00,,,0.01,VWS V14.01,2013-02-03 21:05:00,
2013-02-03 13:10:00,60.3,46.8,30.26,West,273,0.0,4.0,61,0.00,,,0.01,VWS V14.01,2013-02-03 21:10:00,
2013-02-03 13:15:00,60.4,46.5,30.26,NW,307,1.0,4.0,60,0.00,,,0.01,VWS V14.01,2013-02-03 21:15:00,
2013-02-03 13:20:00,60.5,46.6,30.26,ENE,72,2.0,4.0,60,0.00,,,0.01,VWS V14.01,2013-02-03 21:20:00,
2013-02-03 13:25:00,60.9,46.5,30.26,North,349,1.0,4.0,59,0.00,,,0.01,VWS V14.01,2013-02-03 21:25:00,
2013-02-03 13:30:00,60.9,46.5,30.26,West,269,1.0,2.0,59,0.00,,,0.01,VWS V14.01,2013-02-03 21:30:00,
2013-02-03 13:35:00,60.7,45.8,30.26,SSW,206,2.0,2.0,58,0.00,,,0.01,VWS V14.01,2013-02-03 21:35:00,
2013-02-03 13:40:00,60.8,46.0,30.26,West,269,1.0,3.0,58,0.00,,,0.01,VWS V14.01,2013-02-03 21:40:00,
2013-02-03 13:45:00,61.2,45.9,30.25,SSW,210,2.0,4.0,57,0.00,,,0.01,VWS V14.01,2013-02-03 21:45:00,
2013-02-03 13:50:00,61.6,46.7,30.25,NW,307,2.0,4.0,58,0.00,,,0.01,VWS V14.01,2013-02-03 21:50:00,
2013-02-03 13:55:00,61.7,46.3,30.25,WSW,249,2.0,4.0,57,0.00,,,0.01,VWS V14.01,2013-02-03 21:55:00,
2013-02-03 14:00:00,61.8,47.3,30.25,NW,314,2.0,2.0,59,0.00,,,0.01,VWS V14.01,2013-02-03 22:00:00,
2013-02-03 14:05:00,61.5,47.5,30.24,West,274,0.0,3.0,60,0.00,,,0.01,VWS V14.01,2013-02-03 22:05:00,
2013-02-03 14:10:00,61.3,47.8,30.25,WNW,290,1.0,6.0,61,0.00,,,0.01,VWS V14.01,2013-02-03 22:10:00,
2013-02-03 14:15:00,61.2,48.1,30.25,WNW,302,1.0,6.0,62,0.00,,,0.01,VWS V14.01,2013-02-03 22:15:00,
2013-02-03 14:20:00,61.4,47.8,30.25,North,349,1.0,6.0,61,0.00,,,0.01,VWS V14.01,2013-02-03 22:20:00,
2013-02-03 14:25:00,61.6,47.6,30.24,NE,48,0.0,6.0,60,0.00,,,0.01,VWS V14.01,2013-02-03 22:25:00,
2013-02-03 14:30:00,61.5,47.9,30.24,WNW,285,1.0,2.0,61,0.00,,,0.01,VWS V14.01,2013-02-03 22:30:00,
2013-02-03 14:35:00,61.2,47.7,30.24,West,271,0.0,3.0,61,0.00,,,0.01,VWS V14.01,2013-02-03 22:35:00,
2013-02-03 14:40:00,61.0,47.0,30.24,WNW,294,0.0,3.0,60,0.00,,,0.01,VWS V14.01,2013-02-03 22:40:00,
2013-02-03 14:45:00,61.1,47.6,30.24,NW,307,1.0,4.0,61,0.00,,,0.01,VWS V14.01,2013-02-03 22:45:00,
2013-02-03 14:50:00,61.1,47.6,30.24,WSW,243,1.0,4.0,61,0.00,,,0.01,VWS V14.01,2013-02-03 22:50:00,
2013-02-03 14:55:00,61.1,47.1,30.24,WNW,285,2.0,4.0,60,0.00,,,0.01,VWS V14.01,2013-02-03 22:55:00,
2013-02-03 15:00:00,61.3,48.2,30.23,NNE,27,0.0,3.0,62,0.00,,,0.01,VWS V14.01,2013-02-03 23:00:00,
2013-02-03 15:05:00,61.4,47.8,30.23,NE,52,0.0,3.0,61,0.00,,,0.01,VWS V14.01,2013-02-03 23:05:00,
2013-02-03 15:10:00,61.4,47.4,30.23,WNW,300,0.0,3.0,60,0.00,,,0.01,VWS V14.01,2013-02-03 23:10:00,
2013-02-03 15:15:00,61.2,47.7,30.24,NNE,33,0.0,3.0,61,0.00,,,0.01,VWS V14.01,2013-02-03 23:15:00,
2013-02-03 15:20:00,61.4,47.4,30.24,NW,307,2.0,3.0,60,0.00,,,0.01,VWS V14.01,2013-02-03 23:20:00,
2013-02-03 15:25:00,61.8,47.8,30.24,North,351,0.0,3.0,60,0.00,,,0.01,VWS V14.01,2013-02-03 23:25:00,
2013-02-03 15:30:00,61.8,47.3,30.24,NW,305,0.0,3.0,59,0.00,,,0.01,VWS V14.01,2013-02-03 23:30:00,
2013-02-03 15:35:00,61.6,47.6,30.24,West,280,0.0,3.0,60,0.00,,,0.01,VWS V14.01,2013-02-03 23:35:00,
2013-02-03 15:40:00,61.4,47.4,30.23,WSW,240,0.0,3.0,60,0.00,,,0.01,VWS V14.01,2013-02-03 23:40:00,
2013-02-03 15:45:00,61.3,47.3,30.23,NW,307,2.0,3.0,60,0.00,,,0.01,VWS V14.01,2013-02-03 23:45:00,
2013-02-03 15:50:00,61.2,47.2,30.23,WSW,246,1.0,3.0,60,0.00,,,0.01,VWS V14.01,2013-02-03 23:50:00,
2013-02-03 15:55:00,61.5,47.5,30.23,WSW,243,0.0,3.0,60,0.00,,,0.01,VWS V14.01,2013-02-03 23:55:00,
2013-02-03 16:00:00,61.3,46.9,30.23,NE,54,0.0,1.0,59,0.00,,,0.01,VWS V14.01,2013-02-04 00:00:00,
2013-02-03 16:05:00,61.2,46.8,30.23,SW,222,0.0,2.0,59,0.00,,,0.01,VWS V14.01,2013-02-04 00:05:00,
2013-02-03 16:10:00,61.2,46.8,30.23,NW,320,1.0,2.0,59,0.00,,,0.01,VWS V14.01,2013-02-04 00:10:00,
2013-02-03 16:15:00,61.0,46.6,30.22,WNW,286,0.0,2.0,59,0.00,,,0.01,VWS V14.01,2013-02-04 00:15:00,
2013-02-03 16:20:00,61.0,47.0,30.22,NNW,337,0.0,2.0,60,0.00,,,0.01,VWS V14.01,2013-02-04 00:20:00,
2013-02-03 16:25:00,61.2,47.2,30.22,NNW,332,0.0,2.0,60,0.00,,,0.01,VWS V14.01,2013-02-04 00:25:00,
2013-02-03 16:30:00,61.0,46.6,30.22,West,281,1.0,2.0,59,0.00,,,0.01,VWS V14.01,2013-02-04 00:30:00,
2013-02-03 16:35:00,60.7,46.8,30.22,WNW,290,0.0,2.0,60,0.00,,,0.01,VWS V14.01,2013-02-04 00:35:00,
2013-02-03 16:40:00,60.6,46.7,30.22,ENE,60,0.0,2.0,60,0.00,,,0.01,VWS V14.01,2013-02-04 00:40:00,
2013-02-03 16:45:00,60.3,46.8,30.22,NNW,330,0.0,2.0,61,0.00,,,0.01,VWS V14.01,2013-02-04 00:45:00,
2013-02-03 16:50:00,60.3,46.8,30.22,West,263,0.0,2.0,61,0.00,,,0.01,VWS V14.01,2013-02-04 00:50:00,
2013-02-03 16:55:00,60.0,47.0,30.22,West,264,0.0,2.0,62,0.00,,,0.01,VWS V14.01,2013-02-04 00:55:00,
2013-02-03 17:00:00,59.3,46.7,30.22,WNW,291,0.0,1.0,63,0.00,,,0.01,VWS V14.01,2013-02-04 01:00:00,
2013-02-03 17:05:00,58.5,46.0,30.22,NW,308,0.0,1.0,63,0.00,,,0.01,VWS V14.01,2013-02-04 01:05:00,
2013-02-03 17:10:00,57.7,46.0,30.22,NW,308,0.0,1.0,65,0.00,,,0.01,VWS V14.01,2013-02-04 01:10:00,
2013-02-03 17:15:00,57.0,45.8,30.22,NW,308,0.0,1.0,66,0.00,,,0.01,VWS V14.01,2013-02-04 01:15:00,
2013-02-03 17:20:00,56.3,45.9,30.22,NW,308,0.0,1.0,68,0.00,,,0.01,VWS V14.01,2013-02-04 01:20:00,
2013-02-03 17:25:00,55.6,45.6,30.22,NW,307,0.0,1.0,69,0.00,,,0.01,VWS V14.01,2013-02-04 01:25:00,
2013-02-03 17:30:00,55.0,45.8,30.23,NW,307,0.0,0.0,71,0.00,,,0.01,VWS V14.01,2013-02-04 01:30:00,
2013-02-03 17:35:00,54.3,45.5,30.23,NW,309,0.0,0.0,72,0.00,,,0.01,VWS V14.01,2013-02-04 01:35:00,
2013-02-03 17:40:00,53.6,45.5,30.23,NW,309,0.0,0.0,74,0.00,,,0.01,VWS V14.01,2013-02-04 01:40:00,
2013-02-03 17:45:00,52.9,45.2,30.23,NW,309,0.0,0.0,75,0.00,,,0.01,VWS V14.01,2013-02-04 01:45:00,
2013-02-03 17:50:00,52.3,45.0,30.23,NW,309,0.0,0.0,76,0.00,,,0.01,VWS V14.01,2013-02-04 01:50:00,
2013-02-03 17:55:00,51.6,44.3,30.23,NW,309,0.0,0.0,76,0.00,,,0.01,VWS V14.01,2013-02-04 01:55:00,
2013-02-03 18:00:00,51.0,44.7,30.23,NW,309,0.0,0.0,79,0.00,,,0.01,VWS V14.01,2013-02-04 02:00:00,
2013-02-03 18:05:00,50.6,44.7,30.23,NW,309,0.0,0.0,80,0.00,,,0.01,VWS V14.01,2013-02-04 02:05:00,
2013-02-03 18:10:00,50.3,44.4,30.23,NW,309,0.0,0.0,80,0.00,,,0.01,VWS V14.01,2013-02-04 02:10:00,
2013-02-03 18:15:00,49.9,44.0,30.23,NW,309,0.0,0.0,80,0.00,,,0.01,VWS V14.01,2013-02-04 02:15:00,
2013-02-03 18:20:00,49.4,43.8,30.23,NW,309,0.0,0.0,81,0.00,,,0.01,VWS V14.01,2013-02-04 02:20:00,
2013-02-03 18:25:00,48.9,43.3,30.23,NW,309,0.0,0.0,81,0.00,,,0.01,VWS V14.01,2013-02-04 02:25:00,
2013-02-03 18:30:00,48.5,43.3,30.23,NW,309,0.0,0.0,82,0.00,,,0.01,VWS V14.01,2013-02-04 02:30:00,
2013-02-03 18:35:00,48.1,42.9,30.24,NW,309,0.0,0.0,82,0.00,,,0.01,VWS V14.01,2013-02-04 02:35:00,
2013-02-03 18:40:00,47.7,42.8,30.24,NW,309,0.0,0.0,83,0.00,,,0.01,VWS V14.01,2013-02-04 02:40:00,
2013-02-03 18:45:00,47.4,42.8,30.24,NW,309,0.0,0.0,84,0.00,,,0.01,VWS V14.01,2013-02-04 02:45:00,
2013-02-03 18:50:00,47.1,42.8,30.24,WNW,302,0.0,0.0,85,0.00,,,0.01,VWS V14.01,2013-02-04 02:50:00,
2013-02-03 18:55:00,47.0,42.4,30.24,WNW,302,0.0,0.0,84,0.00,,,0.01,VWS V14.01,2013-02-04 02:55:00,
2013-02-03 19:00:00,46.7,42.1,30.24,WNW,302,0.0,0.0,84,0.00,,,0.01,VWS V14.01,2013-02-04 03:00:00,
2013-02-03 19:05:00,46.6,42.6,30.24,WNW,302,0.0,0.0,86,0.00,,,0.01,VWS V14.01,2013-02-04 03:05:00,
2013-02-03 19:10:00,46.5,42.5,30.24,WNW,301,0.0,1.0,86,0.00,,,0.01,VWS V14.01,2013-02-04 03:10:00,
2013-02-03 19:15:00,46.4,42.1,30.24,WNW,299,0.0,1.0,85,0.00,,,0.01,VWS V14.01,2013-02-04 03:15:00,
2013-02-03 19:20:00,46.1,42.2,30.24,SE,136,0.0,1.0,86,0.00,,,0.01,VWS V14.01,2013-02-04 03:20:00,
2013-02-03 19:25:00,45.8,41.9,30.24,SE,136,0.0,1.0,86,0.00,,,0.01,VWS V14.01,2013-02-04 03:25:00,
2013-02-03 19:30:00,45.6,41.7,30.24,SE,136,0.0,0.0,86,0.00,,,0.01,VWS V14.01,2013-02-04 03:30:00,
2013-02-03 19:35:00,45.3,41.7,30.24,SE,136,0.0,0.0,87,0.00,,,0.01,VWS V14.01,2013-02-04 03:35:00,
2013-02-03 19:40:00,45.0,41.1,30.24,SE,136,0.0,0.0,86,0.00,,,0.01,VWS V14.01,2013-02-04 03:40:00,
2013-02-03 19:45:00,44.7,41.1,30.24,SE,136,0.0,0.0,87,0.00,,,0.01,VWS V14.01,2013-02-04 03:45:00,
2013-02-03 19:50:00,44.4,40.8,30.24,SE,136,0.0,0.0,87,0.00,,,0.01,VWS V14.01,2013-02-04 03:50:00,
2013-02-03 19:55:00,44.3,41.0,30.24,SE,136,0.0,0.0,88,0.00,,,0.01,VWS V14.01,2013-02-04 03:55:00,
2013-02-03 20:00:00,44.2,40.9,30.24,SE,137,0.0,0.0,88,0.00,,,0.01,VWS V14.01,2013-02-04 04:00:00,
2013-02-03 20:05:00,44.1,40.8,30.24,SE,136,0.0,0.0,88,0.00,,,0.01,VWS V14.01,2013-02-04 04:05:00,
2013-02-03 20:10:00,43.9,40.6,30.24,SE,135,0.0,0.0,88,0.00,,,0.01,VWS V14.01,2013-02-04 04:10:00,
2013-02-03 20:15:00,43.8,40.8,30.25,SE,136,0.0,1.0,89,0.00,,,0.01,VWS V14.01,2013-02-04 04:15:00,
2013-02-03 20:20:00,43.8,40.8,30.25,East,82,2.0,2.0,89,0.00,,,0.01,VWS V14.01,2013-02-04 04:20:00,
2013-02-03 20:25:00,44.0,41.0,30.24,East,84,0.0,2.0,89,0.00,,,0.01,VWS V14.01,2013-02-04 04:25:00,
2013-02-03 20:30:00,43.9,40.9,30.24,East,89,0.0,0.0,89,0.00,,,0.01,VWS V14.01,2013-02-04 04:30:00,
2013-02-03 20:35:00,43.9,40.9,30.24,SE,145,0.0,1.0,89,0.00,,,0.01,VWS V14.01,2013-02-04 04:35:00,
2013-02-03 20:40:00,44.0,41.0,30.24,SW,214,0.0,1.0,89,0.00,,,0.01,VWS V14.01,2013-02-04 04:40:00,
2013-02-03 20:45:00,43.9,40.9,30.24,SSE,162,0.0,1.0,89,0.00,,,0.01,VWS V14.01,2013-02-04 04:45:00,
2013-02-03 20:50:00,43.8,41.1,30.24,ENE,66,0.0,1.0,90,0.00,,,0.01,VWS V14.01,2013-02-04 04:50:00,
2013-02-03 20:55:00,43.8,40.8,30.24,SSE,166,0.0,1.0,89,0.00,,,0.01,VWS V14.01,2013-02-04 04:55:00,
2013-02-03 21:00:00,43.6,40.6,30.24,SSE,166,0.0,0.0,89,0.00,,,0.01,VWS V14.01,2013-02-04 05:00:00,
2013-02-03 21:01:00,43.6,40.6,30.24,SSE,166,0.0,0.0,89,0.00,,,0.01,VWS V14.01,2013-02-04 05:01:00,
2013-02-03 21:03:00,43.4,40.4,30.24,SSE,166,0.0,0.0,89,0.00,,,0.01,VWS V14.01,2013-02-04 05:03:00,
2013-02-03 21:08:00,43.0,40.0,30.24,SSE,167,0.0,0.0,89,0.00,,,0.01,VWS V14.01,2013-02-04 05:08:00,
2013-02-03 21:13:00,42.5,39.8,30.24,SSE,166,0.0,0.0,90,0.00,,,0.01,VWS V14.01,2013-02-04 05:13:00,
2013-02-03 21:18:00,42.3,39.9,30.24,SSE,166,0.0,0.0,91,0.00,,,0.01,VWS V14.01,2013-02-04 05:18:00,
2013-02-03 21:23:00,42.3,39.9,30.25,SSE,166,0.0,0.0,91,0.00,,,0.01,VWS V14.01,2013-02-04 05:23:00,
2013-02-03 21:28:00,42.4,40.2,30.25,SSE,166,0.0,0.0,92,0.00,,,0.01,VWS V14.01,2013-02-04 05:28:00,
2013-02-03 21:33:00,42.3,40.2,30.25,SSE,166,0.0,0.0,92,0.00,,,0.01,VWS V14.01,2013-02-04 05:33:00,
2013-02-03 21:38:00,42.1,40.0,30.25,SSE,166,0.0,0.0,92,0.00,,,0.01,VWS V14.01,2013-02-04 05:38:00,
2013-02-03 21:43:00,42.0,39.8,30.25,SSE,166,0.0,0.0,92,0.00,,,0.01,VWS V14.01,2013-02-04 05:43:00,
2013-02-03 21:48:00,41.7,39.5,30.24,SSE,166,0.0,0.0,92,0.00,,,0.01,VWS V14.01,2013-02-04 05:48:00,
2013-02-03 21:53:00,41.7,39.5,30.24,SSE,166,0.0,0.0,92,0.00,,,0.01,VWS V14.01,2013-02-04 05:53:00,
2013-02-03 21:58:00,41.5,39.3,30.24,SSE,166,0.0,0.0,92,0.00,,,0.01,VWS V14.01,2013-02-04 05:58:00,
2013-02-03 22:03:00,41.4,39.2,30.24,SSE,166,0.0,0.0,92,0.00,,,0.01,VWS V14.01,2013-02-04 06:03:00,
2013-02-03 22:08:00,41.4,39.5,30.24,South,173,0.0,0.0,93,0.00,,,0.01,VWS V14.01,2013-02-04 06:08:00,
2013-02-03 22:13:00,41.3,39.4,30.24,SSW,193,0.0,0.0,93,0.00,,,0.01,VWS V14.01,2013-02-04 06:13:00,
2013-02-03 22:18:00,41.2,39.3,30.24,SSW,193,0.0,0.0,93,0.00,,,0.01,VWS V14.01,2013-02-04 06:18:00,
2013-02-03 22:23:00,41.2,39.3,30.24,South,188,0.0,0.0,93,0.00,,,0.01,VWS V14.01,2013-02-04 06:23:00,
2013-02-03 22:28:00,41.1,39.2,30.24,South,188,0.0,0.0,93,0.00,,,0.01,VWS V14.01,2013-02-04 06:28:00,
2013-02-03 22:33:00,41.0,39.1,30.25,SSE,167,0.0,0.0,93,0.00,,,0.01,VWS V14.01,2013-02-04 06:33:00,
2013-02-03 22:38:00,41.1,39.2,30.25,SSE,149,0.0,0.0,93,0.00,,,0.01,VWS V14.01,2013-02-04 06:38:00,
2013-02-03 22:43:00,41.4,39.5,30.24,SE,132,0.0,1.0,93,0.00,,,0.01,VWS V14.01,2013-02-04 06:43:00,
2013-02-03 22:48:00,41.5,39.6,30.24,SE,131,0.0,1.0,93,0.00,,,0.01,VWS V14.01,2013-02-04 06:48:00,
2013-02-03 22:53:00,41.4,39.5,30.24,SE,131,0.0,1.0,93,0.00,,,0.01,VWS V14.01,2013-02-04 06:53:00,
2013-02-03 22:58:00,41.4,39.5,30.24,SE,133,0.0,1.0,93,0.00,,,0.01,VWS V14.01,2013-02-04 06:58:00,
2013-02-03 23:03:00,41.5,39.9,30.25,SE,131,0.0,0.0,94,0.00,,,0.01,VWS V14.01,2013-02-04 07:03:00,
2013-02-03 23:08:00,41.6,39.7,30.25,SE,131,0.0,0.0,93,0.00,,,0.01,VWS V14.01,2013-02-04 07:08:00,
2013-02-03 23:13:00,41.4,39.5,30.24,SE,131,0.0,0.0,93,0.00,,,0.01,VWS V14.01,2013-02-04 07:13:00,
2013-02-03 23:18:00,41.0,38.9,30.24,SE,131,0.0,0.0,92,0.00,,,0.01,VWS V14.01,2013-02-04 07:18:00,
2013-02-03 23:23:00,40.6,38.5,30.24,SE,131,0.0,0.0,92,0.00,,,0.01,VWS V14.01,2013-02-04 07:23:00,
2013-02-03 23:28:00,40.4,38.5,30.24,SE,131,0.0,0.0,93,0.00,,,0.01,VWS V14.01,2013-02-04 07:28:00,
2013-02-03 23:33:00,40.2,38.3,30.24,SE,131,0.0,0.0,93,0.00,,,0.01,VWS V14.01,2013-02-04 07:33:00,
2013-02-03 23:38:00,40.1,38.2,30.24,SE,131,0.0,0.0,93,0.00,,,0.01,VWS V14.01,2013-02-04 07:38:00,
2013-02-03 23:43:00,39.9,38.0,30.25,SE,131,0.0,0.0,93,0.00,,,0.01,VWS V14.01,2013-02-04 07:43:00,
2013-02-03 23:48:00,39.8,38.2,30.25,SE,131,0.0,0.0,94,0.00,,,0.01,VWS V14.01,2013-02-04 07:48:00,
2013-02-03 23:53:00,39.8,38.2,30.24,SE,131,0.0,0.0,94,0.00,,,0.01,VWS V14.01,2013-02-04 07:53:00,
2013-02-03 23:58:00,39.9,38.3,30.24,SE,131,0.0,0.0,94,0.00,,,0.01,VWS V14.01,2013-02-04 07:58:00,